TimeCST,TemperatureF,Dew PointF,Humidity,Sea Level PressureIn,VisibilityMPH,Wind Direction,Wind SpeedMPH,Gust SpeedMPH,PrecipitationIn,Events,Conditions,WindDirDegrees,DateUTC
12:53 AM,39.9,34.0,79,30.13,10.0,ENE,6.9,-,N/A,,Overcast,60,2011-11-08 06:53:00
1:53 AM,39.0,35.1,86,30.11,8.0,NE,10.4,-,N/A,,Overcast,40,2011-11-08 07:53:00
2:29 AM,37.4,35.6,93,30.05,2.0,NNE,10.4,-,N/A,,Overcast,20,2011-11-08 08:29:00
2:53 AM,37.4,35.6,93,30.07,2.5,North,6.9,-,N/A,,Overcast,10,2011-11-08 08:53:00
3:11 AM,37.4,35.6,93,30.08,2.5,North,6.9,-,N/A,,Overcast,360,2011-11-08 09:11:00
3:34 AM,37.4,35.6,93,30.08,3.0,NNE,8.1,-,N/A,,Overcast,30,2011-11-08 09:34:00
3:53 AM,37.0,36.0,96,30.12,3.0,NNE,9.2,-,N/A,,Overcast,20,2011-11-08 09:53:00
4:09 AM,37.4,35.6,93,30.06,2.5,NNE,9.2,-,N/A,,Overcast,30,2011-11-08 10:09:00
4:27 AM,37.4,35.6,93,30.04,3.0,NNE,10.4,-,N/A,,Overcast,20,2011-11-08 10:27:00
4:51 AM,37.4,35.6,93,30.04,4.0,NNE,13.8,-,N/A,,Overcast,20,2011-11-08 10:51:00
4:53 AM,37.0,36.0,96,30.08,4.0,NNE,13.8,-,N/A,,Overcast,20,2011-11-08 10:53:00
5:11 AM,37.4,35.6,93,30.06,5.0,North,10.4,-,N/A,,Overcast,10,2011-11-08 11:11:00
5:53 AM,37.0,36.0,96,30.11,5.0,North,10.4,-,0.00,,Overcast,360,2011-11-08 11:53:00
6:31 AM,37.4,35.6,93,30.09,7.0,North,8.1,-,N/A,,Overcast,10,2011-11-08 12:31:00
6:53 AM,37.0,35.1,93,30.12,9.0,North,9.2,-,0.00,,Overcast,10,2011-11-08 12:53:00
7:53 AM,37.0,35.1,93,30.14,8.0,NNE,10.4,-,0.00,,Overcast,20,2011-11-08 13:53:00
8:53 AM,37.0,33.1,86,30.15,10.0,North,13.8,-,0.01,,Overcast,10,2011-11-08 14:53:00
9:53 AM,37.9,33.1,83,30.14,10.0,North,13.8,-,N/A,,Overcast,10,2011-11-08 15:53:00
10:53 AM,39.9,34.0,79,30.15,9.0,NE,13.8,-,0.00,Rain,Light Rain,40,2011-11-08 16:53:00
11:53 AM,41.0,33.1,73,30.16,10.0,NE,12.7,-,0.00,,Overcast,40,2011-11-08 17:53:00
12:53 PM,46.0,30.9,56,30.12,10.0,NE,15.0,-,N/A,,Mostly Cloudy,40,2011-11-08 18:53:00
1:53 PM,48.0,28.9,48,30.10,10.0,NNE,11.5,-,N/A,,Partly Cloudy,30,2011-11-08 19:53:00
2:53 PM,48.9,26.1,41,30.11,10.0,North,13.8,-,N/A,,Clear,10,2011-11-08 20:53:00
3:53 PM,48.9,26.1,41,30.12,10.0,North,10.4,-,N/A,,Clear,10,2011-11-08 21:53:00
4:53 PM,46.4,26.6,46,30.10,10.0,North,10.4,-,N/A,,Clear,360,2011-11-08 22:53:00
5:53 PM,39.9,24.1,53,30.16,10.0,North,5.8,-,N/A,,Clear,350,2011-11-08 23:53:00
6:53 PM,39.0,23.0,53,30.20,10.0,North,5.8,-,N/A,,Clear,360,2011-11-09 00:53:00
7:53 PM,33.1,21.9,64,30.23,10.0,Calm,Calm,-,N/A,,Partly Cloudy,0,2011-11-09 01:53:00
8:53 PM,30.9,23.0,72,30.25,10.0,West,8.1,-,N/A,,Scattered Clouds,260,2011-11-09 02:53:00
9:53 PM,30.9,23.0,72,30.27,10.0,West,9.2,-,N/A,,Clear,280,2011-11-09 03:53:00
10:53 PM,30.2,24.8,80,30.23,10.0,West,8.1,-,N/A,,Overcast,280,2011-11-09 04:53:00
11:53 PM,32.0,26.1,79,30.29,10.0,NW,5.8,-,N/A,,Overcast,320,2011-11-09 05:53:00